Temperature
2 2 3 3 4 4 4 4 4 4 4 5 5 5 6 6 6 6 7 7 7 8 8 8 8 8 8 8 8 8 8 8 8 9 9 9 9 9 10 10 10 10 10
2 2 2 2 3 3 3 3 3 3 4 4 4 4 4 5 5 5 6 6 7 7 7 7 8 8 8 8 8 8 8 8 8 8 8 8 8 9 9 9 9 9 9
1 1 1 1 2 2 2 2 2 3 3 3 3 3 4 4 4 5 5 6 6 6 7 7 7 7 7 7 7 7 8 7 8 8 7 7 8 8 8 9 9 9 9
0 0 1 1 1 1 1 2 2 2 2 2 2 2 2 3 3 4 4 5 5 6 6 6 6 7 7 7 7 7 7 7 7 7 7 7 8 7 7 8 8 8 9
-0 0 0 0 0 0 1 1 1 1 2 1 1 2 2 2 2 3 3 4 5 5 5 5 6 6 6 6 6 6 6 6 7 7 7 7 7 7 7 7 7 8 8
-1 -0 -0 -0 -0 0 0 0 1 1 1 1 1 1 1 1 2 2 2 3 4 4 5 5 5 5 5 6 6 6 6 6 6 6 6 7 7 7 7 7 7 7 8
-1 -1 -1 -0 -1 -0 -0 -0 -0 0 0 0 0 1 1 1 1 1 2 2 3 3 4 4 4 5 5 5 5 5 5 5 6 6 6 6 6 7 7 7 7 7 7
-1 -1 -1 -1 -1 -1 -1 -1 -1 -1 -1 -0 -0 0 0 0 1 1 1 2 2 2 3 3 3 4 4 4 5 5 5 5 5 5 5 5 6 6 6 7 7 6 6
-2 -2 -1 -1 -2 -1 -1 -1 -1 -1 -1 -1 -1 -1 -0 -0 0 0 1 1 1 2 2 2 3 3 4 4 4 4 4 5 5 5 5 5 5 6 6 6 6 6 6
-2 -2 -2 -2 -2 -2 -2 -2 -2 -2 -2 -2 -1 -1 -1 -1 -0 -0 0 1 1 1 1 2 2 3 3 3 4 4 4 4 4 4 5 5 5 5 5 6 6 6 6
-3 -3 -3 -2 -2 -2 -2 -2 -2 -2 -2 -2 -2 -2 -1 -1 -1 -1 -0 0 1 1 1 1 2 2 2 3 3 3 3 3 4 4 4 4 4 4 5 5 5 5 5
-3 -3 -3 -3 -3 -3 -3 -3 -3 -3 -3 -2 -2 -2 -2 -2 -1 -1 -1 -1 -0 0 0 0 1 1 2 2 2 2 3 3 3 3 3 4 4 4 4 5 5 5 5
-3 -3 -3 -3 -3 -3 -3 -3 -3 -3 -3 -3 -3 -2 -2 -2 -2 -2 -1 -1 -1 -1 -0 -0 0 0 1 1 1 2 2 2 2 3 3 3 3 3 4 4 4 4 4
-4 -4 -4 -4 -4 -4 -4 -4 -4 -4 -3 -3 -3 -3 -3 -3 -2 -2 -2 -2 -1 -1 -1 -1 -1 -0 -0 0 0 1 1 1 2 2 2 2 3 3 3 3 4 4 4
-4 -5 -5 -5 -4 -4 -4 -4 -4 -4 -4 -4 -4 -3 -3 -3 -3 -3 -2 -2 -2 -2 -2 -2 -1 -1 -1 -1 -0 -0 0 1 1 1 2 2 2 2 2 3 3 3 3
-5 -5 -5 -5 -5 -5 -5 -5 -5 -5 -4 -4 -4 -4 -4 -4 -3 -3 -3 -3 -2 -2 -2 -2 -2 -2 -1 -1 -1 -1 -0 -0 0 1 1 1 1 1 2 2 2 2 2
-5 -5 -5 -5 -5 -5 -6 -5 -5 -5 -5 -5 -4 -4 -4 -4 -4 -4 -3 -3 -3 -3 -3 -3 -2 -2 -2 -2 -2 -2 -1 -1 -0 -0 0 0 1 1 1 1 1 1 2
-5 -6 -6 -6 -6 -6 -6 -6 -6 -5 -5 -5 -5 -5 -5 -5 -5 -4 -4 -4 -4 -4 -3 -3 -3 -3 -3 -2 -2 -2 -2 -1 -1 -1 -0 -0 -0 0 0 1 1 1 1
-6 -6 -6 -6 -6 -6 -6 -6 -6 -6 -6 -6 -5 -5 -5 -5 -5 -5 -5 -4 -4 -4 -4 -4 -4 -3 -3 -3 -3 -3 -2 -2 -2 -1 -1 -1 -1 -1 -1 -0 0 0 0
-7 -7 -7 -7 -7 -7 -7 -7 -6 -6 -6 -6 -6 -6 -6 -6 -6 -6 -5 -5 -5 -5 -5 -4 -4 -4 -4 -4 -4 -3 -3 -3 -2 -2 -2 -2 -2 -1 -1 -1 -1 -1 -0
-7 -7 -7 -7 -7 -7 -7 -7 -7 -7 -7 -7 -6 -6 -6 -6 -6 -6 -6 -5 -5 -5 -5 -5 -5 -5 -5 -4 -4 -4 -4 -3 -3 -3 -2 -2 -2 -2 -2 -2 -2 -1 -1
-8 -8 -8 -7 -7 -7 -8 -7 -7 -7 -7 -7 -7 -7 -7 -7 -7 -6 -6 -6 -6 -6 -6 -6 -5 -5 -5 -5 -5 -5 -4 -4 -4 -4 -3 -3 -3 -3 -3 -3 -2 -2 -2
-8 -8 -8 -8 -8 -8 -8 -8 -8 -8 -8 -7 -7 -7 -7 -7 -7 -7 -7 -7 -7 -7 -7 -7 -6 -6 -6 -6 -6 -5 -5 -5 -5 -4 -4 -4 -4 -4 -3 -3 -3 -3 -3
-9 -9 -9 -9 -8 -8 -8 -8 -8 -8 -8 -8 -8 -8 -8 -7 -7 -7 -7 -8 -7 -7 -7 -7 -7 -7 -7 -6 -6 -6 -6 -5 -5 -5 -5 -5 -5 -4 -4 -4 -3 -3 -3
-9 -9 -9 -9 -9 -9 -9 -9 -9 -9 -8 -8 -8 -8 -8 -8 -8 -8 -8 -8 -8 -8 -8 -8 -8 -7 -7 -7 -7 -7 -7 -6 -6 -6 -6 -5 -5 -5 -4 -4 -4 -4 -4
-9 -10 -9 -10 -9 -9 -9 -9 -9 -9 -9 -9 -9 -9 -9 -9 -9 -9 -9 -9 -9 -9 -8 -8 -8 -8 -8 -7 -7 -7 -7 -7 -7 -6 -6 -6 -6 -6 -6 -5 -5 -5 -5
Wind_Speed
2 3 4 5 5 5 6 5 4 4 3 2 2 2 3 3 4 4 4 4 3 2 2 2 3 4 4 4 4 2 3 2 1 1 1 2 1 1 2 2 3 4 5
3 3 4 5 4 4 5 5 5 4 3 2 2 2 3 3 4 5 5 5 4 2 2 2 2 3 3 4 4 3 3 2 3 2 2 0 1 1 2 2 3 3 3
1 3 4 4 4 4 4 5 5 5 4 3 2 3 3 3 3 4 4 5 5 3 3 3 3 3 4 5 5 5 5 4 3 3 3 3 3 1 2 2 3 3 2
1 2 3 4 4 4 4 4 4 5 5 3 2 2 2 4 5 4 4 5 5 4 3 3 3 3 3 4 5 4 3 5 5 3 2 2 2 2 1 2 2 3 4
1 2 3 3 4 4 4 4 5 5 5 4 2 2 3 4 4 4 4 4 5 4 3 3 3 3 3 3 4 4 4 4 5 4 2 1 1 2 2 3 3 2 3
2 2 3 3 4 4 4 4 4 5 5 4 3 2 3 5 5 5 4 4 4 4 3 3 3 4 4 4 4 5 5 5 5 4 3 3 3 2 3 3 3 3 3
3 3 4 5 5 5 5 5 5 6 5 5 4 3 3 4 4 5 4 4 4 4 3 4 4 4 4 5 5 5 6 6 6 5 4 4 3 2 2 3 2 3 2
3 3 4 4 5 5 5 5 5 6 6 5 5 4 3 3 3 4 4 4 4 4 4 4 4 4 4 4 4 4 5 6 6 6 5 3 3 3 3 3 3 2 2
4 4 4 4 4 5 5 5 5 6 6 6 5 5 4 4 4 4 4 4 4 4 4 4 4 4 4 4 4 4 5 5 6 6 6 5 4 4 3 3 4 4 4
5 5 4 4 4 4 5 5 4 5 6 6 5 5 5 4 4 4 4 5 4 5 4 4 3 3 3 3 3 3 4 4 5 5 6 6 4 4 3 4 4 3 4
6 5 5 5 5 5 5 5 5 6 6 6 6 6 5 5 4 4 5 5 5 5 4 4 4 4 3 3 3 3 4 4 4 4 5 6 4 4 4 4 4 3 3
5 5 5 5 5 5 6 5 5 5 6 6 6 6 5 5 5 5 5 5 5 5 4 4 4 4 4 3 3 4 4 5 5 4 4 4 4 4 4 4 5 5 4
6 5 5 5 5 5 6 6 6 6 6 6 6 6 6 5 5 5 5 5 5 4 4 4 4 4 4 4 4 4 5 5 5 5 5 4 4 4 3 3 4 4 4
5 5 5 5 6 6 6 6 6 6 6 6 6 6 6 6 6 6 5 5 4 4 4 4 4 5 5 4 4 5 5 5 5 5 5 5 5 5 5 5 4 4 4
6 6 6 6 6 6 6 6 6 6 6 6 6 6 6 6 6 6 5 5 4 4 4 4 4 4 4 4 4 5 5 5 5 4 4 4 5 6 5 5 5 4 4
6 6 7 7 7 7 7 7 7 7 6 6 7 6 6 6 6 6 5 4 4 4 4 4 4 4 4 6 6 5 4 4 5 5 4 4 4 5 7 8 7 6 6
6 7 7 7 7 7 7 7 7 7 6 6 7 6 6 6 6 6 5 5 4 4 4 4 4 4 5 7 7 7 4 4 4 4 4 4 4 4 4 5 6 6 7
6 6 6 6 7 7 7 7 6 6 6 6 6 6 6 7 7 6 5 5 4 4 4 5 5 5 5 7 7 7 4 4 4 4 4 4 4 5 5 4 4 5 5
6 6 5 6 6 7 7 7 6 6 6 6 7 7 7 7 7 6 6 5 5 4 4 4 4 5 5 7 7 6 3 3 4 4 4 4 5 7 7 4 5 5 4
5 5 5 5 6 7 6 6 6 6 7 7 7 7 6 6 6 7 6 5 5 5 5 5 4 4 5 7 7 6 3 4 4 4 4 6 6 7 7 5 4 5 5
6 5 4 5 6 6 6 6 6 7 8 7 7 7 6 6 6 6 5 5 5 4 4 5 4 5 6 7 8 8 4 4 5 4 4 4 7 8 8 7 5 7 6
6 5 5 6 6 5 5 6 7 8 7 7 6 6 6 6 6 5 6 5 5 4 5 4 5 4 4 6 8 8 8 6 5 5 4 5 8 9 9 7 7 8 6
5 5 5 6 6 6 5 6 8 7 7 7 7 7 7 6 6 5 6 5 4 4 4 4 4 5 4 4 8 8 8 8 5 5 8 8 9 9 7 8 8 6 4
5 5 5 6 7 7 7 6 7 7 6 7 7 7 6 6 5 5 5 4 4 4 5 5 5 5 4 4 4 4 5 6 5 5 6 8 8 6 6 6 5 4 4
5 4 5 6 7 7 7 8 7 6 6 7 6 6 6 6 5 5 4 5 4 5 5 5 5 5 5 7 8 6 4 3 4 4 3 3 3 3 3 3 3 3 3
5 5 6 6 7 7 8 8 7 6 6 6 6 5 5 5 5 5 6 8 8 10 10 10 9 7 9 11 10 9 8 8 7 5 3 3 3 4 4 4 3 3 3
Wind_Direction
47 36 32 26 26 21 17 5 3 357 359 356 345 338 325 318 321 320 311 312 298 256 230 223 212 206 200 199 189 179 176 176 150 99 37 342 279 202 199 183 169 175 181
34 24 23 24 20 15 9 359 359 348 346 330 318 309 304 298 305 309 315 307 298 275 246 227 220 219 207 197 196 176 175 187 173 153 143 133 295 286 243 209 193 186 177
45 8 10 8 4 2 354 349 346 343 339 341 344 341 339 330 320 318 316 315 302 281 269 251 236 225 210 200 202 194 181 189 205 188 168 170 212 246 265 243 213 197 195
18 2 352 350 344 338 339 343 342 341 342 340 336 322 318 309 305 300 300 310 312 296 284 272 252 237 228 208 203 200 199 184 199 213 215 203 178 178 222 260 246 221 213
348 341 335 328 329 333 341 340 344 343 343 339 320 312 314 302 308 305 302 306 317 309 300 282 263 249 240 222 216 211 208 199 200 204 214 225 216 193 193 230 242 249 231
323 332 336 338 333 339 347 344 344 341 344 338 326 315 307 305 310 309 306 310 310 298 303 300 281 260 249 233 231 219 217 214 211 212 211 208 196 199 195 216 227 239 250
320 330 338 339 337 338 338 339 342 337 338 337 328 313 301 295 296 301 301 303 301 297 289 294 279 272 266 249 239 224 221 216 211 213 221 226 220 208 202 196 218 239 252
312 310 316 322 324 331 330 332 336 331 331 331 321 311 302 292 295 297 296 291 289 291 291 281 278 279 278 272 249 234 227 217 212 217 217 231 234 219 216 198 194 218 239
313 306 311 319 323 329 326 320 325 325 326 325 318 310 304 299 299 298 297 287 293 299 294 286 280 282 278 271 257 243 236 221 214 215 217 224 235 228 221 202 192 193 220
313 311 310 316 319 322 321 318 322 318 319 319 313 313 305 302 299 297 295 293 296 297 289 286 282 277 276 270 258 258 250 231 223 220 217 225 231 231 225 205 201 203 211
303 307 311 317 322 327 327 325 325 324 321 318 315 310 309 309 307 298 293 291 298 292 281 278 273 270 271 269 259 257 257 246 236 226 218 227 231 228 228 209 200 206 209
304 309 314 325 331 331 328 325 320 317 315 316 316 309 310 313 311 304 298 294 295 293 282 278 267 267 272 270 258 257 255 252 242 233 223 231 237 232 237 220 210 212 212
316 318 323 329 328 325 322 318 317 317 318 319 316 313 313 311 308 303 300 296 289 287 293 285 275 268 268 265 260 250 247 249 244 233 226 228 231 232 244 235 225 220 222
310 319 324 326 328 325 322 319 319 319 322 322 319 315 307 304 305 302 297 291 285 278 279 283 276 273 271 270 268 259 251 253 247 240 233 226 228 232 238 234 230 225 217
320 326 325 323 325 325 324 321 319 320 321 319 316 310 309 311 314 309 301 298 298 295 286 284 282 280 270 268 267 258 247 249 249 246 245 238 241 243 240 238 228 222 222
310 316 319 320 322 321 321 322 320 316 318 316 312 310 312 316 313 306 307 311 307 301 293 285 282 282 280 284 281 275 253 252 249 247 252 254 257 266 265 256 243 233 224
300 305 308 311 313 312 312 311 310 315 316 311 313 319 318 315 312 312 317 313 304 297 292 286 281 279 284 291 284 280 265 256 246 237 247 260 262 276 277 266 259 253 250
295 298 304 309 311 311 311 308 310 312 313 315 321 325 326 321 318 316 311 308 300 288 283 280 280 282 284 291 291 286 272 262 253 239 240 250 258 262 268 254 248 248 247
286 288 291 297 303 308 311 314 317 320 318 319 321 320 321 320 318 317 313 307 302 295 288 284 279 279 283 291 293 291 267 263 267 254 244 247 252 270 271 255 245 249 255
294 294 300 304 307 311 318 321 320 322 317 314 313 314 316 316 314 312 313 310 303 294 293 292 286 280 277 286 290 290 266 263 267 262 251 256 262 269 271 251 241 248 258
304 307 310 312 309 315 324 322 320 313 310 313 314 315 317 315 310 314 319 317 314 309 301 295 291 281 279 283 286 287 268 263 265 263 259 256 270 270 271 265 250 254 255
320 321 321 319 321 325 327 323 316 313 316 317 316 315 317 317 320 324 321 321 321 320 313 299 296 290 285 288 283 283 284 282 264 263 263 260 270 271 270 267 264 266 258
317 321 319 320 325 328 327 317 315 319 322 323 321 318 318 318 322 321 318 322 322 314 307 302 298 299 295 292 296 291 290 289 282 270 270 272 273 272 267 265 267 263 243
317 323 324 323 323 325 325 315 316 322 324 321 320 322 323 322 323 321 319 320 315 306 303 303 302 302 303 295 291 285 287 291 289 284 279 280 279 273 268 268 267 255 240
314 316 315 313 314 321 323 324 325 327 324 319 319 323 323 322 325 326 319 315 305 302 303 302 298 300 298 297 298 294 285 279 273 278 271 260 257 254 254 260 259 254 253
306 309 310 312 313 317 319 321 323 323 320 321 322 319 319 322 326 326 328 329 326 324 322 319 312 308 305 305 304 301 296 295 289 283 272 262 255 256 257 257 254 248 249
Height
1531 1531 1530 1529 1528 1528 1527 1527 1525 1525 1524 1523 1522 1521 1521 1522 1523 1524 1524 1524 1525 1526 1527 1528 1529 1531 1532 1533 1535 1536 1537 1539 1540 1542 1543 1544 1545 1546 1547 1548 1549 1550 1551
1529 1529 1528 1527 1527 1526 1525 1524 1523 1522 1522 1521 1520 1519 1519 1519 1519 1520 1520 1521 1521 1522 1524 1524 1525 1527 1528 1530 1531 1532 1533 1535 1537 1539 1539 1541 1543 1543 1544 1545 1546 1547 1548
1528 1527 1527 1526 1525 1524 1523 1522 1521 1520 1519 1518 1517 1516 1516 1515 1515 1515 1516 1516 1517 1518 1519 1520 1521 1522 1524 1525 1526 1528 1529 1531 1533 1536 1537 1538 1537 1538 1540 1541 1542 1543 1545
1527 1526 1526 1525 1523 1522 1521 1520 1519 1518 1516 1515 1514 1514 1512 1511 1511 1511 1512 1512 1513 1514 1514 1516 1517 1518 1519 1520 1522 1524 1525 1527 1528 1531 1533 1535 1535 1536 1535 1537 1538 1540 1541
1526 1525 1525 1524 1522 1521 1519 1518 1516 1515 1514 1513 1512 1511 1509 1509 1508 1508 1508 1508 1508 1509 1510 1511 1512 1513 1514 1516 1517 1519 1521 1522 1524 1525 1528 1530 1531 1532 1532 1532 1534 1535 1537
1525 1524 1523 1522 1521 1519 1517 1516 1514 1512 1511 1510 1509 1507 1506 1506 1505 1505 1503 1503 1504 1505 1505 1506 1507 1508 1509 1511 1512 1514 1516 1518 1520 1521 1523 1525 1526 1527 1528 1528 1529 1530 1532
1523 1522 1521 1520 1518 1516 1515 1513 1511 1509 1508 1507 1506 1504 1504 1503 1502 1501 1500 1500 1500 1500 1500 1502 1503 1503 1504 1506 1508 1509 1511 1512 1514 1516 1518 1520 1522 1523 1524 1525 1526 1527 1528
1522 1521 1519 1518 1516 1514 1512 1510 1508 1506 1505 1504 1503 1501 1501 1499 1498 1497 1496 1496 1496 1496 1496 1497 1498 1498 1499 1501 1503 1504 1506 1507 1509 1511 1513 1515 1517 1518 1520 1521 1522 1522 1523
1521 1520 1518 1516 1514 1512 1510 1508 1506 1504 1502 1501 1499 1498 1497 1495 1494 1493 1493 1492 1492 1492 1492 1492 1493 1493 1494 1495 1497 1498 1500 1502 1503 1505 1508 1509 1511 1513 1514 1516 1517 1519 1518
1520 1518 1516 1514 1512 1509 1508 1506 1504 1501 1499 1498 1496 1494 1492 1491 1490 1489 1489 1488 1488 1488 1487 1487 1487 1488 1489 1490 1492 1493 1494 1496 1497 1500 1502 1503 1505 1507 1509 1510 1511 1513 1514
1518 1516 1514 1512 1509 1507 1505 1503 1501 1498 1497 1495 1492 1491 1488 1487 1486 1485 1485 1484 1483 1483 1482 1482 1482 1483 1484 1485 1486 1487 1489 1490 1492 1494 1495 1497 1499 1501 1502 1504 1505 1507 1508
1516 1514 1512 1509 1506 1504 1502 1500 1498 1496 1494 1491 1489 1487 1485 1484 1482 1481 1480 1479 1479 1479 1478 1477 1477 1478 1479 1479 1480 1481 1483 1484 1486 1487 1489 1490 1493 1495 1496 1497 1499 1501 1502
1514 1512 1509 1506 1504 1501 1499 1497 1495 1492 1490 1488 1486 1484 1481 1480 1478 1477 1476 1475 1475 1474 1473 1473 1473 1473 1473 1474 1475 1476 1477 1479 1480 1481 1483 1485 1487 1488 1490 1491 1493 1495 1496
1512 1509 1506 1504 1501 1499 1497 1494 1492 1489 1487 1485 1483 1480 1478 1476 1475 1474 1473 1472 1470 1469 1468 1468 1468 1469 1469 1469 1470 1471 1472 1473 1475 1476 1477 1479 1481 1482 1484 1485 1486 1488 1490
1509 1507 1504 1501 1499 1496 1493 1491 1489 1486 1484 1482 1479 1477 1475 1473 1471 1470 1469 1468 1466 1465 1465 1465 1464 1465 1465 1465 1466 1466 1467 1468 1469 1470 1471 1473 1475 1477 1479 1480 1480 1482 1484
1507 1505 1502 1499 1496 1493 1490 1488 1485 1483 1481 1479 1476 1474 1472 1469 1468 1466 1465 1463 1462 1462 1461 1461 1460 1460 1460 1461 1461 1462 1462 1462 1463 1464 1466 1468 1470 1471 1473 1474 1475 1477 1478
1505 1502 1499 1497 1494 1491 1488 1485 1482 1480 1478 1475 1472 1470 1468 1466 1464 1462 1460 1459 1458 1458 1457 1457 1456 1456 1455 1456 1456 1457 1457 1457 1458 1459 1461 1462 1464 1465 1467 1468 1470 1471 1472
1502 1500 1497 1494 1491 1488 1485 1483 1480 1477 1474 1472 1469 1467 1464 1462 1460 1459 1457 1455 1455 1454 1453 1452 1452 1451 1451 1452 1452 1453 1453 1453 1454 1455 1456 1457 1458 1460 1461 1462 1463 1464 1465
1501 1498 1495 1492 1489 1486 1483 1479 1476 1474 1471 1468 1466 1464 1461 1459 1457 1455 1453 1452 1450 1449 1449 1448 1448 1448 1448 1448 1448 1448 1448 1448 1449 1450 1451 1452 1453 1454 1456 1457 1457 1458 1460
1498 1495 1492 1489 1486 1483 1480 1476 1473 1471 1468 1466 1463 1461 1459 1457 1454 1452 1450 1448 1447 1446 1445 1444 1444 1444 1444 1444 1444 1444 1443 1443 1444 1445 1446 1447 1448 1450 1450 1451 1451 1452 1453
1494 1492 1489 1486 1483 1480 1476 1473 1470 1468 1466 1463 1461 1459 1456 1454 1451 1449 1447 1445 1443 1442 1441 1440 1440 1440 1440 1439 1439 1439 1439 1439 1439 1439 1440 1441 1443 1444 1445 1446 1446 1447 1448
1491 1488 1485 1482 1480 1477 1474 1471 1468 1466 1463 1461 1458 1456 1453 1451 1449 1446 1444 1442 1440 1438 1437 1437 1436 1436 1435 1435 1434 1435 1435 1435 1434 1434 1435 1436 1438 1438 1439 1440 1441 1442 1443
1488 1486 1483 1480 1477 1474 1472 1469 1466 1464 1461 1458 1456 1453 1451 1449 1446 1444 1441 1439 1437 1436 1435 1433 1432 1431 1430 1430 1430 1429 1429 1429 1429 1429 1430 1431 1431 1432 1433 1434 1435 1436 1437
1486 1483 1480 1477 1475 1472 1470 1467 1464 1461 1458 1455 1453 1450 1448 1445 1444 1442 1439 1437 1435 1433 1431 1430 1429 1427 1426 1425 1425 1425 1424 1424 1424 1424 1424 1425 1425 1427 1427 1428 1429 1430 1430
1483 1481 1478 1475 1472 1469 1467 1464 1461 1458 1456 1453 1451 1448 1445 1443 1441 1439 1437 1434 1433 1431 1429 1427 1426 1424 1422 1422 1422 1421 1421 1420 1420 1419 1419 1419 1420 1420 1421 1422 1422 1423 1424
1481 1478 1475 1473 1470 1467 1464 1461 1459 1456 1453 1450 1448 1446 1443 1441 1438 1435 1433 1432 1430 1428 1426 1425 1423 1421 1420 1419 1418 1418 1417 1416 1416 1416 1414 1414 1414 1414 1415 1415 1416 1417 1417